User: anonymous   Login
Location: Béaulencourt
(50.0796°N, 2.8795°E)
Time: 23:57:33
(UTC+00:00)
Language:

Cosmos 407 Rocket - Orbit

View from above orbital plane
View from above orbital plane
View from above satellite
View from above satellite

Ground track
Ground track

The orbit is defined by the following mean orbital elements,

1 05175U          26065.40298124 +.00000000 +00000-0 +96450-4 0 00008
2 05175  74.0463 106.1178 0030737 246.6267 113.1654 14.39473958    05
Epoch (UTC): 06 March 2026 09:40:17
Eccentricity: 0.0030737
inclination: 74.0463°
perigee height: 738 km
apogee height: 782 km
right ascension of ascending node: 106.1178°
argument of perigee: 246.6267°
revolutions per day: 14.39473958
mean anomaly at epoch: 113.1654°

The dashed part of the orbit path shows where the satellite is in the earth's shadow,  

DLR